Time,TemperatureF,DewpointF,PressureIn,WindDirection,WindDirectionDegrees,WindSpeedMPH,WindSpeedGustMPH,Humidity,HourlyPrecipIn,Conditions,Clouds,dailyrainin,SoftwareType,DateUTC
2013-11-04 00:01:00,37.5,34.0,27.96,South,171,5.0,6.0,87,0.00,,---,0.00,VWS V14.01,2013-11-04 06:01:00,
2013-11-04 00:06:00,37.4,33.9,27.96,South,175,7.0,7.0,87,0.00,,---,0.00,VWS V14.01,2013-11-04 06:06:00,
2013-11-04 00:12:00,37.4,35.3,27.96,SSE,155,4.0,9.0,92,0.00,,---,0.00,VWS V14.01,2013-11-04 06:12:00,
2013-11-04 00:17:00,37.4,33.9,27.95,ESE,122,5.0,13.0,87,0.00,,---,0.00,VWS V14.01,2013-11-04 06:17:00,
2013-11-04 00:22:00,37.5,34.0,27.95,South,177,13.0,13.0,87,0.00,,---,0.00,VWS V14.01,2013-11-04 06:22:00,
2013-11-04 00:27:00,37.5,34.0,27.95,SSE,161,7.0,8.0,87,0.00,,---,0.00,VWS V14.01,2013-11-04 06:27:00,
2013-11-04 00:32:00,37.5,34.0,27.95,South,189,2.0,9.0,87,0.00,,---,0.00,VWS V14.01,2013-11-04 06:32:00,
2013-11-04 00:37:00,37.5,34.0,27.95,SE,142,12.0,12.0,87,0.00,,---,0.00,VWS V14.01,2013-11-04 06:37:00,
2013-11-04 00:42:00,37.5,34.0,27.95,SSE,149,2.0,2.0,87,0.00,,---,0.00,VWS V14.01,2013-11-04 06:42:00,
2013-11-04 00:47:00,37.5,34.3,27.95,SE,144,10.0,10.0,88,0.00,,---,0.00,VWS V14.01,2013-11-04 06:47:00,
2013-11-04 00:52:00,37.6,34.4,27.95,SE,139,3.0,7.0,88,0.00,,---,0.00,VWS V14.01,2013-11-04 06:52:00,
2013-11-04 00:58:00,37.6,34.4,27.95,SSE,165,3.0,7.0,88,0.00,,---,0.00,VWS V14.01,2013-11-04 06:58:00,
2013-11-04 01:03:00,37.7,34.5,27.95,SSE,150,5.0,8.0,88,0.00,,---,0.00,VWS V14.01,2013-11-04 07:03:00,
2013-11-04 01:08:00,37.8,34.6,27.95,ESE,117,5.0,11.0,88,0.00,,---,0.00,VWS V14.01,2013-11-04 07:08:00,
2013-11-04 01:13:00,37.8,34.6,27.95,SSE,162,7.0,7.0,88,0.00,,---,0.00,VWS V14.01,2013-11-04 07:13:00,
2013-11-04 01:18:00,37.8,34.6,27.95,South,179,3.0,9.0,88,0.00,,---,0.00,VWS V14.01,2013-11-04 07:18:00,
2013-11-04 01:24:00,37.9,34.7,27.95,South,182,7.0,9.0,88,0.00,,---,0.00,VWS V14.01,2013-11-04 07:24:00,
2013-11-04 01:29:00,37.9,34.7,27.95,SE,146,3.0,8.0,88,0.00,,---,0.00,VWS V14.01,2013-11-04 07:29:00,
2013-11-04 01:34:00,37.9,34.7,27.95,SSE,148,2.0,15.0,88,0.00,,---,0.00,VWS V14.01,2013-11-04 07:34:00,
2013-11-04 01:39:00,37.9,34.7,27.95,SE,146,7.0,15.0,88,0.00,,---,0.00,VWS V14.01,2013-11-04 07:39:00,
2013-11-04 01:44:00,38.0,34.8,27.95,SSE,149,7.0,11.0,88,0.00,,---,0.00,VWS V14.01,2013-11-04 07:44:00,
2013-11-04 01:49:00,38.0,34.8,27.94,ESE,115,7.0,10.0,88,0.00,,---,0.00,VWS V14.01,2013-11-04 07:49:00,
2013-11-04 01:54:00,38.0,34.8,27.94,ESE,121,9.0,11.0,88,0.00,,---,0.00,VWS V14.01,2013-11-04 07:54:00,
2013-11-04 01:59:00,38.0,34.8,27.93,SSE,165,10.0,10.0,88,0.00,,---,0.00,VWS V14.01,2013-11-04 07:59:00,
2013-11-04 02:05:00,38.1,34.9,27.93,South,181,7.0,11.0,88,0.00,,---,0.00,VWS V14.01,2013-11-04 08:05:00,
2013-11-04 02:10:00,38.2,34.7,27.93,South,173,4.0,8.0,87,0.00,,---,0.00,VWS V14.01,2013-11-04 08:10:00,
2013-11-04 02:15:00,38.2,34.7,27.93,SE,140,5.0,5.0,87,0.00,,---,0.00,VWS V14.01,2013-11-04 08:15:00,
2013-11-04 02:20:00,38.2,34.7,27.93,SSW,192,11.0,15.0,87,0.00,,---,0.00,VWS V14.01,2013-11-04 08:20:00,
2013-11-04 02:25:00,38.2,34.7,27.93,SSE,150,12.0,12.0,87,0.00,,---,0.00,VWS V14.01,2013-11-04 08:25:00,
2013-11-04 02:31:00,38.2,34.7,27.92,SSE,161,3.0,7.0,87,0.00,,---,0.00,VWS V14.01,2013-11-04 08:31:00,
2013-11-04 02:36:00,38.2,35.0,27.92,SSE,156,8.0,9.0,88,0.00,,---,0.00,VWS V14.01,2013-11-04 08:36:00,
2013-11-04 02:41:00,38.3,34.8,27.92,ESE,123,7.0,9.0,87,0.00,,---,0.00,VWS V14.01,2013-11-04 08:41:00,
2013-11-04 02:46:00,38.4,34.9,27.92,SSW,196,4.0,7.0,87,0.00,,---,0.00,VWS V14.01,2013-11-04 08:46:00,
2013-11-04 02:51:00,38.5,35.0,27.92,SSE,157,5.0,7.0,87,0.00,,---,0.00,VWS V14.01,2013-11-04 08:51:00,
2013-11-04 02:56:00,38.5,34.7,27.92,SSW,205,3.0,5.0,86,0.00,,---,0.00,VWS V14.01,2013-11-04 08:56:00,
2013-11-04 03:02:00,38.6,34.8,27.91,South,190,3.0,16.0,86,0.00,,---,0.00,VWS V14.01,2013-11-04 09:02:00,
2013-11-04 03:07:00,38.6,34.8,27.91,SSE,161,2.0,7.0,86,0.00,,---,0.00,VWS V14.01,2013-11-04 09:07:00,
2013-11-04 03:12:00,38.6,34.8,27.91,South,170,2.0,3.0,86,0.00,,---,0.00,VWS V14.01,2013-11-04 09:12:00,
2013-11-04 03:17:00,38.7,34.9,27.91,SSE,164,4.0,11.0,86,0.00,,---,0.00,VWS V14.01,2013-11-04 09:17:00,
2013-11-04 03:23:00,38.6,35.1,27.91,South,185,1.0,8.0,87,0.00,,---,0.00,VWS V14.01,2013-11-04 09:23:00,
2013-11-04 03:28:00,38.3,35.3,27.91,SE,141,3.0,7.0,89,0.00,,---,0.00,VWS V14.01,2013-11-04 09:28:00,
2013-11-04 03:33:00,38.0,35.3,27.91,SE,139,4.0,11.0,90,0.00,,---,0.00,VWS V14.01,2013-11-04 09:33:00,
2013-11-04 03:38:00,37.7,35.3,27.91,SSE,163,2.0,8.0,91,0.01,,---,0.01,VWS V14.01,2013-11-04 09:38:00,
2013-11-04 03:43:00,37.5,35.4,27.91,SE,138,6.0,10.0,92,0.01,,---,0.01,VWS V14.01,2013-11-04 09:43:00,
2013-11-04 03:48:00,37.2,35.1,27.90,South,175,5.0,10.0,92,0.01,,---,0.01,VWS V14.01,2013-11-04 09:48:00,
2013-11-04 03:53:00,37.0,35.2,27.90,ESE,102,8.0,8.0,93,0.02,,---,0.02,VWS V14.01,2013-11-04 09:53:00,
2013-11-04 03:58:00,36.9,35.1,27.90,SSE,159,6.0,13.0,93,0.02,,---,0.02,VWS V14.01,2013-11-04 09:58:00,
2013-11-04 04:04:00,36.9,35.3,27.89,SSE,161,2.0,7.0,94,0.02,,---,0.02,VWS V14.01,2013-11-04 10:04:00,
2013-11-04 04:09:00,36.9,35.3,27.89,South,188,8.0,12.0,94,0.03,,---,0.03,VWS V14.01,2013-11-04 10:09:00,
2013-11-04 04:14:00,36.8,35.2,27.89,South,177,6.0,10.0,94,0.03,,---,0.03,VWS V14.01,2013-11-04 10:14:00,
2013-11-04 04:19:00,36.8,35.2,27.89,SSW,198,8.0,9.0,94,0.03,,---,0.03,VWS V14.01,2013-11-04 10:19:00,
2013-11-04 04:24:00,36.8,35.2,27.89,South,177,6.0,9.0,94,0.03,,---,0.03,VWS V14.01,2013-11-04 10:24:00,
2013-11-04 04:30:00,36.7,35.1,27.89,SSE,155,9.0,9.0,94,0.03,,---,0.03,VWS V14.01,2013-11-04 10:30:00,
2013-11-04 04:35:00,36.7,35.1,27.89,South,171,3.0,9.0,94,0.02,,---,0.03,VWS V14.01,2013-11-04 10:35:00,
2013-11-04 04:40:00,36.7,35.1,27.89,SSE,148,7.0,7.0,94,0.02,,---,0.03,VWS V14.01,2013-11-04 10:40:00,
2013-11-04 04:45:00,36.7,35.4,27.89,SE,143,6.0,12.0,95,0.02,,---,0.03,VWS V14.01,2013-11-04 10:45:00,
2013-11-04 04:51:00,36.8,35.5,27.89,SSE,163,5.0,9.0,95,0.01,,---,0.03,VWS V14.01,2013-11-04 10:51:00,
2013-11-04 04:56:00,36.8,35.5,27.89,South,180,5.0,14.0,95,0.01,,---,0.03,VWS V14.01,2013-11-04 10:56:00,
2013-11-04 05:01:00,36.8,35.2,27.89,South,171,2.0,9.0,94,0.01,,---,0.03,VWS V14.01,2013-11-04 11:01:00,
2013-11-04 05:06:00,36.8,35.2,27.89,South,181,4.0,12.0,94,0.00,,---,0.03,VWS V14.01,2013-11-04 11:06:00,
2013-11-04 05:11:00,36.8,35.5,27.89,SSE,147,8.0,8.0,95,0.01,,---,0.04,VWS V14.01,2013-11-04 11:11:00,
2013-11-04 05:14:00,36.7,35.4,27.89,SE,137,4.0,10.0,95,0.01,,---,0.04,VWS V14.01,2013-11-04 11:14:00,
2013-11-04 05:19:00,36.7,35.4,27.89,SSE,165,8.0,8.0,95,0.01,,---,0.04,VWS V14.01,2013-11-04 11:19:00,
2013-11-04 05:22:00,36.7,35.4,27.89,SE,140,3.0,13.0,95,0.01,,---,0.04,VWS V14.01,2013-11-04 11:22:00,
2013-11-04 05:28:00,36.7,35.4,27.89,South,176,6.0,6.0,95,0.01,,---,0.04,VWS V14.01,2013-11-04 11:28:00,
2013-11-04 05:33:00,36.6,35.3,27.89,SSE,159,3.0,12.0,95,0.01,,---,0.04,VWS V14.01,2013-11-04 11:33:00,
2013-11-04 05:38:00,36.6,35.3,27.89,South,182,4.0,10.0,95,0.01,,---,0.04,VWS V14.01,2013-11-04 11:38:00,
2013-11-04 05:43:00,36.6,35.3,27.89,SSE,148,5.0,11.0,95,0.01,,---,0.04,VWS V14.01,2013-11-04 11:43:00,
2013-11-04 05:48:00,36.7,35.4,27.88,SSE,148,4.0,11.0,95,0.01,,---,0.04,VWS V14.01,2013-11-04 11:48:00,
2013-11-04 05:53:00,36.7,35.4,27.88,SSW,192,4.0,10.0,95,0.01,,---,0.04,VWS V14.01,2013-11-04 11:53:00,
2013-11-04 05:58:00,36.7,35.4,27.88,SSE,168,4.0,10.0,95,0.01,,---,0.04,VWS V14.01,2013-11-04 11:58:00,
2013-11-04 06:03:00,36.8,35.5,27.86,SSE,162,3.0,7.0,95,0.01,,---,0.04,VWS V14.01,2013-11-04 12:03:00,
2013-11-04 06:09:00,36.8,35.5,27.86,SW,236,5.0,11.0,95,0.01,,---,0.04,VWS V14.01,2013-11-04 12:09:00,
2013-11-04 06:14:00,36.9,35.6,27.86,South,172,4.0,12.0,95,0.00,,---,0.04,VWS V14.01,2013-11-04 12:14:00,
2013-11-04 06:19:00,36.9,35.6,27.86,SE,140,5.0,7.0,95,0.00,,---,0.04,VWS V14.01,2013-11-04 12:19:00,
2013-11-04 06:24:00,37.0,35.7,27.86,SSE,168,4.0,10.0,95,0.00,,---,0.04,VWS V14.01,2013-11-04 12:24:00,
2013-11-04 06:30:00,37.0,35.7,27.87,ESE,122,11.0,11.0,95,0.00,,---,0.04,VWS V14.01,2013-11-04 12:30:00,
2013-11-04 06:35:00,37.1,35.5,27.87,SSE,163,5.0,11.0,94,0.00,,---,0.04,VWS V14.01,2013-11-04 12:35:00,
2013-11-04 06:40:00,37.1,35.8,27.87,SSE,158,7.0,11.0,95,0.00,,---,0.04,VWS V14.01,2013-11-04 12:40:00,
2013-11-04 06:45:00,37.2,35.9,27.87,SE,132,11.0,15.0,95,0.00,,---,0.04,VWS V14.01,2013-11-04 12:45:00,
2013-11-04 06:50:00,37.4,36.1,27.87,SSE,148,6.0,7.0,95,0.00,,---,0.04,VWS V14.01,2013-11-04 12:50:00,
2013-11-04 06:56:00,37.5,36.2,27.87,SSE,167,5.0,11.0,95,0.00,,---,0.04,VWS V14.01,2013-11-04 12:56:00,
2013-11-04 07:01:00,37.6,36.3,27.86,SE,136,10.0,10.0,95,0.00,,---,0.04,VWS V14.01,2013-11-04 13:01:00,
2013-11-04 07:06:00,37.7,36.4,27.86,SSE,163,10.0,10.0,95,0.00,,---,0.04,VWS V14.01,2013-11-04 13:06:00,
2013-11-04 07:11:00,37.8,36.5,27.86,South,189,2.0,4.0,95,0.00,,---,0.04,VWS V14.01,2013-11-04 13:11:00,
2013-11-04 07:16:00,37.8,36.5,27.86,South,188,3.0,12.0,95,0.00,,---,0.04,VWS V14.01,2013-11-04 13:16:00,
2013-11-04 07:21:00,37.8,36.5,27.86,SE,144,6.0,12.0,95,0.00,,---,0.04,VWS V14.01,2013-11-04 13:21:00,
2013-11-04 07:26:00,37.9,36.3,27.86,SSE,161,7.0,13.0,94,0.00,,---,0.04,VWS V14.01,2013-11-04 13:26:00,
2013-11-04 07:31:00,37.9,36.3,27.86,SSE,155,5.0,7.0,94,0.00,,---,0.04,VWS V14.01,2013-11-04 13:31:00,
2013-11-04 07:37:00,37.8,36.2,27.86,SSE,163,6.0,12.0,94,0.00,,---,0.04,VWS V14.01,2013-11-04 13:37:00,
2013-11-04 07:42:00,37.9,36.6,27.86,South,173,7.0,12.0,95,0.00,,---,0.04,VWS V14.01,2013-11-04 13:42:00,
2013-11-04 07:47:00,37.9,36.6,27.86,South,173,4.0,10.0,95,0.00,,---,0.04,VWS V14.01,2013-11-04 13:47:00,
2013-11-04 07:52:00,38.0,36.7,27.86,South,187,6.0,11.0,95,0.00,,---,0.04,VWS V14.01,2013-11-04 13:52:00,
2013-11-04 07:57:00,38.0,36.7,27.86,SSW,194,4.0,7.0,95,0.00,,---,0.04,VWS V14.01,2013-11-04 13:57:00,
2013-11-04 08:02:00,38.1,36.8,27.86,SE,134,5.0,5.0,95,0.00,,---,0.04,VWS V14.01,2013-11-04 14:02:00,
2013-11-04 08:07:00,38.2,36.9,27.86,SSE,167,4.0,6.0,95,0.00,,---,0.04,VWS V14.01,2013-11-04 14:07:00,
2013-11-04 08:12:00,38.2,36.9,27.86,SSW,209,6.0,8.0,95,0.00,,---,0.04,VWS V14.01,2013-11-04 14:12:00,
2013-11-04 08:18:00,38.3,37.0,27.86,SE,146,8.0,11.0,95,0.00,,---,0.04,VWS V14.01,2013-11-04 14:18:00,
2013-11-04 08:23:00,38.4,37.1,27.86,SE,146,8.0,10.0,95,0.00,,---,0.04,VWS V14.01,2013-11-04 14:23:00,
2013-11-04 08:28:00,38.5,37.2,27.86,SSW,207,7.0,13.0,95,0.00,,---,0.04,VWS V14.01,2013-11-04 14:28:00,
2013-11-04 08:33:00,38.6,37.3,27.85,South,169,4.0,8.0,95,0.00,,---,0.04,VWS V14.01,2013-11-04 14:33:00,
2013-11-04 08:38:00,38.6,37.0,27.85,South,172,9.0,9.0,94,0.00,,---,0.04,VWS V14.01,2013-11-04 14:38:00,
2013-11-04 08:44:00,38.7,37.1,27.85,SSE,156,5.0,8.0,94,0.00,,---,0.04,VWS V14.01,2013-11-04 14:44:00,
2013-11-04 08:49:00,38.7,37.1,27.85,SSE,168,11.0,14.0,94,0.00,,---,0.04,VWS V14.01,2013-11-04 14:49:00,
2013-11-04 08:54:00,38.7,37.1,27.85,SSE,152,1.0,6.0,94,0.00,,---,0.04,VWS V14.01,2013-11-04 14:54:00,
2013-11-04 08:59:00,38.7,37.1,27.84,South,187,1.0,5.0,94,0.00,,---,0.04,VWS V14.01,2013-11-04 14:59:00,
2013-11-04 09:04:00,38.6,37.0,27.84,SSW,207,7.0,8.0,94,0.00,,---,0.04,VWS V14.01,2013-11-04 15:04:00,
2013-11-04 09:10:00,38.7,37.1,27.84,SSE,164,2.0,3.0,94,0.00,,---,0.04,VWS V14.01,2013-11-04 15:10:00,
2013-11-04 09:15:00,38.7,37.1,27.84,SSE,157,3.0,18.0,94,0.00,,---,0.04,VWS V14.01,2013-11-04 15:15:00,
2013-11-04 09:20:00,38.7,37.1,27.84,SSE,147,6.0,10.0,94,0.00,,---,0.04,VWS V14.01,2013-11-04 15:20:00,
2013-11-04 09:25:00,38.7,37.1,27.84,South,171,8.0,9.0,94,0.00,,---,0.04,VWS V14.01,2013-11-04 15:25:00,
2013-11-04 09:30:00,38.7,37.1,27.84,SSE,165,8.0,8.0,94,0.00,,---,0.04,VWS V14.01,2013-11-04 15:30:00,
2013-11-04 09:35:00,38.7,37.1,27.84,South,171,6.0,9.0,94,0.00,,---,0.04,VWS V14.01,2013-11-04 15:35:00,
2013-11-04 09:41:00,38.6,37.0,27.84,South,177,8.0,8.0,94,0.00,,---,0.04,VWS V14.01,2013-11-04 15:41:00,
2013-11-04 09:46:00,38.7,37.1,27.83,South,174,4.0,12.0,94,0.00,,---,0.04,VWS V14.01,2013-11-04 15:46:00,
2013-11-04 09:51:00,38.7,37.1,27.83,South,175,8.0,13.0,94,0.00,,---,0.04,VWS V14.01,2013-11-04 15:51:00,
2013-11-04 09:56:00,38.7,37.1,27.83,South,175,3.0,7.0,94,0.00,,---,0.04,VWS V14.01,2013-11-04 15:56:00,
2013-11-04 10:01:00,38.7,37.1,27.83,SSE,165,2.0,9.0,94,0.00,,---,0.04,VWS V14.01,2013-11-04 16:01:00,
2013-11-04 10:07:00,38.7,37.1,27.83,South,183,6.0,9.0,94,0.00,,---,0.04,VWS V14.01,2013-11-04 16:07:00,
2013-11-04 10:12:00,38.7,37.1,27.83,SE,145,6.0,11.0,94,0.00,,---,0.04,VWS V14.01,2013-11-04 16:12:00,
2013-11-04 10:17:00,38.9,37.0,27.83,SSE,163,1.0,11.0,93,0.00,,---,0.04,VWS V14.01,2013-11-04 16:17:00,
2013-11-04 10:22:00,38.9,37.0,27.83,SSE,158,5.0,8.0,93,0.00,,---,0.04,VWS V14.01,2013-11-04 16:22:00,
2013-11-04 10:27:00,38.8,37.0,27.83,South,174,4.0,11.0,93,0.00,,---,0.04,VWS V14.01,2013-11-04 16:27:00,
2013-11-04 10:32:00,38.8,37.0,27.83,South,186,9.0,18.0,93,0.00,,---,0.04,VWS V14.01,2013-11-04 16:32:00,
2013-11-04 10:37:00,38.8,37.0,27.83,SSW,210,7.0,7.0,93,0.00,,---,0.04,VWS V14.01,2013-11-04 16:37:00,
2013-11-04 10:42:00,38.8,37.0,27.83,SSE,167,6.0,11.0,93,0.00,,---,0.04,VWS V14.01,2013-11-04 16:42:00,
2013-11-04 10:48:00,38.8,37.2,27.82,South,173,4.0,8.0,94,0.00,,---,0.04,VWS V14.01,2013-11-04 16:48:00,
2013-11-04 10:53:00,38.8,37.2,27.82,SSE,157,10.0,18.0,94,0.00,,---,0.04,VWS V14.01,2013-11-04 16:53:00,
2013-11-04 10:58:00,38.8,37.2,27.82,South,169,6.0,6.0,94,0.00,,---,0.04,VWS V14.01,2013-11-04 16:58:00,
2013-11-04 11:03:00,38.8,37.2,27.82,SSE,162,2.0,7.0,94,0.00,,---,0.04,VWS V14.01,2013-11-04 17:03:00,
2013-11-04 11:08:00,38.8,37.2,27.82,SSE,164,2.0,7.0,94,0.00,,---,0.04,VWS V14.01,2013-11-04 17:08:00,
2013-11-04 11:14:00,38.8,37.2,27.82,SSE,161,1.0,8.0,94,0.00,,---,0.04,VWS V14.01,2013-11-04 17:14:00,
2013-11-04 11:19:00,38.8,37.2,27.81,South,170,5.0,14.0,94,0.00,,---,0.04,VWS V14.01,2013-11-04 17:19:00,
2013-11-04 11:24:00,38.8,37.2,27.81,SE,138,3.0,8.0,94,0.00,,---,0.04,VWS V14.01,2013-11-04 17:24:00,
2013-11-04 11:29:00,38.9,37.3,27.81,SSE,151,1.0,3.0,94,0.00,,---,0.04,VWS V14.01,2013-11-04 17:29:00,
2013-11-04 11:34:00,38.8,37.2,27.81,South,180,4.0,4.0,94,0.00,,---,0.04,VWS V14.01,2013-11-04 17:34:00,
2013-11-04 11:39:00,38.8,37.2,27.81,South,184,3.0,6.0,94,0.00,,---,0.04,VWS V14.01,2013-11-04 17:39:00,
2013-11-04 11:44:00,38.8,37.2,27.80,SE,142,8.0,8.0,94,0.00,,---,0.04,VWS V14.01,2013-11-04 17:44:00,
2013-11-04 11:49:00,38.9,37.3,27.80,South,184,3.0,4.0,94,0.00,,---,0.04,VWS V14.01,2013-11-04 17:49:00,
2013-11-04 11:54:00,38.9,37.3,27.80,SSE,166,5.0,7.0,94,0.00,,---,0.04,VWS V14.01,2013-11-04 17:54:00,
2013-11-04 12:00:00,39.0,37.4,27.80,South,177,2.0,8.0,94,0.00,,---,0.04,VWS V14.01,2013-11-04 18:00:00,
2013-11-04 12:05:00,39.0,37.4,27.80,South,184,0.0,5.0,94,0.00,,---,0.04,VWS V14.01,2013-11-04 18:05:00,
2013-11-04 12:10:00,39.1,37.5,27.80,SSW,198,2.0,10.0,94,0.00,,---,0.04,VWS V14.01,2013-11-04 18:10:00,
2013-11-04 12:15:00,39.1,37.2,27.78,SSE,157,3.0,9.0,93,0.00,,---,0.04,VWS V14.01,2013-11-04 18:15:00,
2013-11-04 12:20:00,39.1,37.2,27.78,SSE,168,9.0,9.0,93,0.00,,---,0.04,VWS V14.01,2013-11-04 18:20:00,
2013-11-04 12:25:00,39.0,37.2,27.78,South,169,5.0,5.0,93,0.00,,---,0.04,VWS V14.01,2013-11-04 18:25:00,
2013-11-04 12:30:00,38.6,36.8,27.78,SSE,168,3.0,8.0,93,0.00,,---,0.04,VWS V14.01,2013-11-04 18:30:00,
2013-11-04 12:36:00,38.1,36.3,27.78,SSW,192,8.0,8.0,93,0.01,,---,0.05,VWS V14.01,2013-11-04 18:36:00,
2013-11-04 12:41:00,37.5,35.7,27.78,SSE,149,5.0,8.0,93,0.01,,---,0.05,VWS V14.01,2013-11-04 18:41:00,
2013-11-04 12:46:00,36.8,35.2,27.78,South,184,8.0,8.0,94,0.03,,---,0.07,VWS V14.01,2013-11-04 18:46:00,
2013-11-04 12:51:00,36.3,34.7,27.78,SSE,150,6.0,9.0,94,0.04,,---,0.08,VWS V14.01,2013-11-04 18:51:00,
2013-11-04 12:57:00,35.9,34.3,27.78,South,179,2.0,4.0,94,0.05,,---,0.09,VWS V14.01,2013-11-04 18:57:00,
2013-11-04 13:02:00,35.6,34.3,27.77,South,187,3.0,8.0,95,0.06,,---,0.10,VWS V14.01,2013-11-04 19:02:00,
2013-11-04 13:07:00,35.3,34.0,27.77,SSE,158,2.0,5.0,95,0.07,,---,0.11,VWS V14.01,2013-11-04 19:07:00,
2013-11-04 13:12:00,35.2,33.9,27.77,SSW,205,5.0,8.0,95,0.09,,---,0.13,VWS V14.01,2013-11-04 19:12:00,
2013-11-04 13:17:00,35.1,33.8,27.77,SSW,198,3.0,3.0,95,0.10,,---,0.14,VWS V14.01,2013-11-04 19:17:00,
2013-11-04 13:22:00,35.2,33.9,27.77,SSE,165,6.0,6.0,95,0.11,,---,0.15,VWS V14.01,2013-11-04 19:22:00,
2013-11-04 13:27:00,35.5,34.5,27.77,South,169,4.0,8.0,96,0.11,,---,0.15,VWS V14.01,2013-11-04 19:27:00,
2013-11-04 13:33:00,35.7,34.7,27.76,South,173,1.0,7.0,96,0.11,,---,0.15,VWS V14.01,2013-11-04 19:33:00,
2013-11-04 13:38:00,36.0,35.0,27.76,SSE,166,4.0,6.0,96,0.10,,---,0.15,VWS V14.01,2013-11-04 19:38:00,
2013-11-04 13:43:00,36.3,35.3,27.76,South,173,2.0,5.0,96,0.10,,---,0.15,VWS V14.01,2013-11-04 19:43:00,
2013-11-04 13:48:00,36.6,35.6,27.75,South,186,5.0,6.0,96,0.08,,---,0.15,VWS V14.01,2013-11-04 19:48:00,
2013-11-04 13:53:00,36.9,35.9,27.75,SSE,154,5.0,5.0,96,0.07,,---,0.15,VWS V14.01,2013-11-04 19:53:00,
2013-11-04 13:59:00,37.1,36.1,27.75,SSE,165,1.0,2.0,96,0.06,,---,0.15,VWS V14.01,2013-11-04 19:59:00,
2013-11-04 14:04:00,37.3,36.3,27.75,South,188,6.0,6.0,96,0.06,,---,0.16,VWS V14.01,2013-11-04 20:04:00,
2013-11-04 14:09:00,37.4,36.4,27.75,SSE,161,5.0,6.0,96,0.04,,---,0.16,VWS V14.01,2013-11-04 20:09:00,
2013-11-04 14:14:00,37.5,36.5,27.75,South,189,7.0,11.0,96,0.04,,---,0.17,VWS V14.01,2013-11-04 20:14:00,
2013-11-04 14:19:00,37.4,36.4,27.75,ESE,121,5.0,8.0,96,0.03,,---,0.18,VWS V14.01,2013-11-04 20:19:00,
2013-11-04 14:24:00,37.3,36.3,27.75,SSW,194,0.0,2.0,96,0.03,,---,0.18,VWS V14.01,2013-11-04 20:24:00,
2013-11-04 14:30:00,37.3,36.3,27.76,SW,235,8.0,16.0,96,0.03,,---,0.18,VWS V14.01,2013-11-04 20:30:00,
2013-11-04 14:35:00,37.3,36.3,27.76,SSE,150,6.0,9.0,96,0.04,,---,0.19,VWS V14.01,2013-11-04 20:35:00,
2013-11-04 14:40:00,37.3,36.3,27.76,SSW,195,4.0,4.0,96,0.04,,---,0.19,VWS V14.01,2013-11-04 20:40:00,
2013-11-04 14:45:00,37.3,36.3,27.75,SSE,156,8.0,8.0,96,0.04,,---,0.19,VWS V14.01,2013-11-04 20:45:00,
2013-11-04 14:51:00,37.4,36.4,27.75,SSW,200,1.0,2.0,96,0.05,,---,0.20,VWS V14.01,2013-11-04 20:51:00,
2013-11-04 14:56:00,37.5,36.5,27.75,SSE,148,2.0,9.0,96,0.05,,---,0.20,VWS V14.01,2013-11-04 20:56:00,
2013-11-04 15:01:00,37.5,36.5,27.75,South,182,3.0,3.0,96,0.06,,---,0.21,VWS V14.01,2013-11-04 21:01:00,
2013-11-04 15:06:00,37.5,36.5,27.75,South,190,3.0,3.0,96,0.05,,---,0.21,VWS V14.01,2013-11-04 21:06:00,
2013-11-04 15:11:00,37.4,36.4,27.75,SSW,210,4.0,6.0,96,0.04,,---,0.21,VWS V14.01,2013-11-04 21:11:00,
2013-11-04 15:17:00,37.4,36.4,27.75,South,182,5.0,7.0,96,0.04,,---,0.21,VWS V14.01,2013-11-04 21:17:00,
2013-11-04 15:22:00,37.4,36.4,27.75,South,177,2.0,8.0,96,0.03,,---,0.21,VWS V14.01,2013-11-04 21:22:00,
2013-11-04 15:27:00,37.5,36.5,27.75,South,184,2.0,2.0,96,0.03,,---,0.21,VWS V14.01,2013-11-04 21:27:00,
2013-11-04 15:32:00,37.5,36.5,27.75,South,178,4.0,4.0,96,0.03,,---,0.22,VWS V14.01,2013-11-04 21:32:00,
2013-11-04 15:38:00,37.6,36.6,27.75,SSW,192,2.0,7.0,96,0.03,,---,0.22,VWS V14.01,2013-11-04 21:38:00,
2013-11-04 15:43:00,37.7,36.7,27.75,South,185,3.0,5.0,96,0.03,,---,0.22,VWS V14.01,2013-11-04 21:43:00,
2013-11-04 15:48:00,37.7,36.7,27.75,South,170,4.0,7.0,96,0.03,,---,0.22,VWS V14.01,2013-11-04 21:48:00,
2013-11-04 15:53:00,37.8,36.8,27.75,South,169,3.0,6.0,96,0.02,,---,0.22,VWS V14.01,2013-11-04 21:53:00,
2013-11-04 15:58:00,37.9,36.9,27.75,South,190,4.0,4.0,96,0.02,,---,0.22,VWS V14.01,2013-11-04 21:58:00,
2013-11-04 16:04:00,37.9,36.9,27.75,SSE,151,2.0,7.0,96,0.01,,---,0.22,VWS V14.01,2013-11-04 22:04:00,
2013-11-04 16:09:00,38.0,37.0,27.75,SSW,205,2.0,6.0,96,0.01,,---,0.22,VWS V14.01,2013-11-04 22:09:00,
2013-11-04 16:14:00,38.0,37.0,27.75,SW,219,0.0,6.0,96,0.02,,---,0.23,VWS V14.01,2013-11-04 22:14:00,
2013-11-04 16:19:00,38.0,37.0,27.75,SSW,194,1.0,7.0,96,0.02,,---,0.23,VWS V14.01,2013-11-04 22:19:00,
2013-11-04 16:24:00,38.0,37.0,27.75,South,184,4.0,4.0,96,0.02,,---,0.23,VWS V14.01,2013-11-04 22:24:00,
2013-11-04 16:29:00,37.9,36.9,27.75,South,186,2.0,6.0,96,0.02,,---,0.23,VWS V14.01,2013-11-04 22:29:00,
2013-11-04 16:35:00,37.9,36.9,27.75,SSW,207,4.0,5.0,96,0.02,,---,0.24,VWS V14.01,2013-11-04 22:35:00,
2013-11-04 16:40:00,38.0,37.0,27.75,SSW,201,5.0,7.0,96,0.02,,---,0.24,VWS V14.01,2013-11-04 22:40:00,
2013-11-04 16:45:00,38.0,37.0,27.75,South,186,4.0,8.0,96,0.02,,---,0.24,VWS V14.01,2013-11-04 22:45:00,
2013-11-04 16:50:00,38.0,37.0,27.75,SSE,166,5.0,5.0,96,0.02,,---,0.24,VWS V14.01,2013-11-04 22:50:00,
2013-11-04 16:55:00,38.1,37.1,27.75,South,175,3.0,9.0,96,0.02,,---,0.24,VWS V14.01,2013-11-04 22:55:00,
2013-11-04 17:00:00,38.2,37.2,27.75,SSW,209,7.0,7.0,96,0.02,,---,0.24,VWS V14.01,2013-11-04 23:00:00,
2013-11-04 17:05:00,38.2,37.2,27.75,SSW,209,1.0,4.0,96,0.02,,---,0.24,VWS V14.01,2013-11-04 23:05:00,
2013-11-04 17:10:00,38.3,37.3,27.75,SSW,192,2.0,4.0,96,0.01,,---,0.24,VWS V14.01,2013-11-04 23:10:00,
2013-11-04 17:15:00,38.3,37.3,27.75,SSE,163,5.0,6.0,96,0.01,,---,0.24,VWS V14.01,2013-11-04 23:15:00,
2013-11-04 17:21:00,38.4,37.4,27.75,South,184,2.0,4.0,96,0.01,,---,0.24,VWS V14.01,2013-11-04 23:21:00,
2013-11-04 17:26:00,38.5,37.5,27.75,South,174,2.0,3.0,96,0.01,,---,0.24,VWS V14.01,2013-11-04 23:26:00,
2013-11-04 17:31:00,38.5,37.5,27.75,SSW,193,4.0,11.0,96,0.01,,---,0.24,VWS V14.01,2013-11-04 23:31:00,
2013-11-04 17:36:00,38.6,37.6,27.75,South,172,4.0,7.0,96,0.00,,---,0.24,VWS V14.01,2013-11-04 23:36:00,
2013-11-04 17:41:00,38.6,37.6,27.75,SSE,166,6.0,6.0,96,0.00,,---,0.24,VWS V14.01,2013-11-04 23:41:00,
2013-11-04 17:46:00,38.6,37.6,27.75,SSW,209,7.0,11.0,96,0.00,,---,0.24,VWS V14.01,2013-11-04 23:46:00,
2013-11-04 17:52:00,38.6,37.6,27.75,SSE,153,0.0,3.0,96,0.00,,---,0.24,VWS V14.01,2013-11-04 23:52:00,
2013-11-04 17:57:00,38.7,37.7,27.75,SSW,210,4.0,5.0,96,0.00,,---,0.24,VWS V14.01,2013-11-04 23:57:00,
2013-11-04 18:02:00,38.7,37.7,27.77,South,178,2.0,4.0,96,0.00,,---,0.24,VWS V14.01,2013-11-05 00:02:00,
2013-11-04 18:07:00,38.7,37.7,27.77,SSW,199,0.0,0.0,96,0.00,,---,0.24,VWS V14.01,2013-11-05 00:07:00,
2013-11-04 18:12:00,38.8,37.8,27.77,SW,218,2.0,4.0,96,0.00,,---,0.24,VWS V14.01,2013-11-05 00:12:00,
2013-11-04 18:18:00,38.8,37.8,27.77,South,190,4.0,4.0,96,0.00,,---,0.24,VWS V14.01,2013-11-05 00:18:00,
2013-11-04 18:23:00,38.9,37.9,27.77,South,186,1.0,3.0,96,0.00,,---,0.24,VWS V14.01,2013-11-05 00:23:00,
2013-11-04 18:28:00,38.9,37.9,27.77,SW,223,8.0,8.0,96,0.00,,---,0.24,VWS V14.01,2013-11-05 00:28:00,
2013-11-04 18:33:00,38.9,37.9,27.78,SW,225,3.0,8.0,96,0.00,,---,0.24,VWS V14.01,2013-11-05 00:33:00,
2013-11-04 18:38:00,39.0,38.0,27.78,SW,219,5.0,5.0,96,0.00,,---,0.24,VWS V14.01,2013-11-05 00:38:00,
2013-11-04 18:43:00,39.1,38.1,27.78,SW,234,5.0,7.0,96,0.00,,---,0.24,VWS V14.01,2013-11-05 00:43:00,
2013-11-04 18:49:00,39.1,38.1,27.78,WSW,237,5.0,5.0,96,0.00,,---,0.24,VWS V14.01,2013-11-05 00:49:00,
2013-11-04 18:54:00,39.0,38.0,27.78,SW,229,6.0,9.0,96,0.00,,---,0.24,VWS V14.01,2013-11-05 00:54:00,
2013-11-04 18:59:00,38.9,37.9,27.78,West,274,6.0,7.0,96,0.00,,---,0.24,VWS V14.01,2013-11-05 00:59:00,
2013-11-04 19:04:00,38.8,37.8,27.79,West,267,3.0,11.0,96,0.00,,---,0.24,VWS V14.01,2013-11-05 01:04:00,
2013-11-04 19:09:00,38.7,37.7,27.79,WSW,252,2.0,6.0,96,0.00,,---,0.24,VWS V14.01,2013-11-05 01:09:00,
2013-11-04 19:14:00,38.6,37.6,27.79,SSW,208,7.0,11.0,96,0.00,,---,0.24,VWS V14.01,2013-11-05 01:14:00,
2013-11-04 19:19:00,38.6,37.6,27.80,SW,221,6.0,7.0,96,0.00,,---,0.24,VWS V14.01,2013-11-05 01:19:00,
2013-11-04 19:24:00,38.5,37.2,27.80,SW,221,5.0,5.0,95,0.00,,---,0.24,VWS V14.01,2013-11-05 01:24:00,
2013-11-04 19:30:00,38.4,37.1,27.80,WSW,249,1.0,5.0,95,0.00,,---,0.24,VWS V14.01,2013-11-05 01:30:00,
2013-11-04 19:35:00,38.3,37.0,27.80,WSW,248,2.0,5.0,95,0.00,,---,0.24,VWS V14.01,2013-11-05 01:35:00,
2013-11-04 19:40:00,38.2,36.9,27.80,SW,227,4.0,7.0,95,0.00,,---,0.24,VWS V14.01,2013-11-05 01:40:00,
2013-11-04 19:45:00,37.9,36.6,27.80,SSW,198,9.0,9.0,95,0.00,,---,0.24,VWS V14.01,2013-11-05 01:45:00,
2013-11-04 19:50:00,37.7,36.4,27.80,WSW,247,4.0,7.0,95,0.00,,---,0.24,VWS V14.01,2013-11-05 01:50:00,
2013-11-04 19:56:00,37.5,36.2,27.80,SSW,194,3.0,7.0,95,0.00,,---,0.24,VWS V14.01,2013-11-05 01:56:00,
2013-11-04 20:01:00,37.3,36.0,27.81,WSW,254,8.0,13.0,95,0.00,,---,0.24,VWS V14.01,2013-11-05 02:01:00,
2013-11-04 20:06:00,37.0,35.4,27.81,WSW,254,6.0,13.0,94,0.00,,---,0.24,VWS V14.01,2013-11-05 02:06:00,
2013-11-04 20:11:00,36.8,35.2,27.81,West,271,6.0,9.0,94,0.00,,---,0.24,VWS V14.01,2013-11-05 02:11:00,
2013-11-04 20:16:00,36.5,34.9,27.82,West,261,1.0,6.0,94,0.00,,---,0.24,VWS V14.01,2013-11-05 02:16:00,
2013-11-04 20:22:00,36.2,34.6,27.82,West,263,8.0,8.0,94,0.00,,---,0.24,VWS V14.01,2013-11-05 02:22:00,
2013-11-04 20:27:00,36.0,34.7,27.82,SW,233,7.0,7.0,95,0.00,,---,0.24,VWS V14.01,2013-11-05 02:27:00,
2013-11-04 20:32:00,35.8,34.2,27.83,West,261,3.0,9.0,94,0.00,,---,0.24,VWS V14.01,2013-11-05 02:32:00,
2013-11-04 20:37:00,35.5,34.0,27.83,WNW,290,5.0,14.0,94,0.00,,---,0.24,VWS V14.01,2013-11-05 02:37:00,
2013-11-04 20:42:00,35.2,33.7,27.83,NW,318,2.0,6.0,94,0.00,,---,0.24,VWS V14.01,2013-11-05 02:42:00,
2013-11-04 20:47:00,35.0,33.7,27.84,NW,308,8.0,12.0,95,0.00,,---,0.24,VWS V14.01,2013-11-05 02:47:00,
2013-11-04 20:52:00,34.6,33.3,27.84,WNW,283,9.0,9.0,95,0.00,,---,0.24,VWS V14.01,2013-11-05 02:52:00,
2013-11-04 20:57:00,34.4,33.1,27.84,West,272,12.0,12.0,95,0.00,,---,0.24,VWS V14.01,2013-11-05 02:57:00,
2013-11-04 21:02:00,33.9,32.4,27.86,West,277,8.0,9.0,94,0.00,,---,0.24,VWS V14.01,2013-11-05 03:02:00,
2013-11-04 21:08:00,33.5,32.2,27.86,West,267,9.0,9.0,95,0.00,,---,0.24,VWS V14.01,2013-11-05 03:08:00,
2013-11-04 21:13:00,33.4,32.1,27.86,SW,219,7.0,7.0,95,0.00,,---,0.24,VWS V14.01,2013-11-05 03:13:00,
2013-11-04 21:18:00,33.3,32.0,27.87,West,268,5.0,7.0,95,0.00,,---,0.24,VWS V14.01,2013-11-05 03:18:00,
2013-11-04 21:23:00,33.3,32.0,27.87,WNW,290,6.0,12.0,95,0.00,,---,0.24,VWS V14.01,2013-11-05 03:23:00,
2013-11-04 21:28:00,33.1,31.8,27.87,SW,236,7.0,8.0,95,0.00,,---,0.24,VWS V14.01,2013-11-05 03:28:00,
2013-11-04 21:33:00,32.9,31.6,27.88,West,269,5.0,12.0,95,0.00,,---,0.24,VWS V14.01,2013-11-05 03:33:00,
2013-11-04 21:38:00,32.8,31.3,27.88,SSW,213,6.0,7.0,94,0.00,,---,0.24,VWS V14.01,2013-11-05 03:38:00,
2013-11-04 21:43:00,32.6,31.1,27.88,West,273,5.0,8.0,94,0.00,,---,0.24,VWS V14.01,2013-11-05 03:43:00,
2013-11-04 21:49:00,32.5,30.7,27.88,West,274,5.0,7.0,93,0.00,,---,0.24,VWS V14.01,2013-11-05 03:49:00,
2013-11-04 21:54:00,32.5,30.7,27.88,West,267,4.0,6.0,93,0.00,,---,0.24,VWS V14.01,2013-11-05 03:54:00,
2013-11-04 21:59:00,32.4,30.6,27.89,WSW,240,3.0,8.0,93,0.00,,---,0.24,VWS V14.01,2013-11-05 03:59:00,
2013-11-04 22:04:00,32.3,30.8,27.89,West,265,1.0,4.0,94,0.00,,---,0.24,VWS V14.01,2013-11-05 04:04:00,
2013-11-04 22:09:00,32.3,30.8,27.89,West,276,3.0,3.0,94,0.00,,---,0.24,VWS V14.01,2013-11-05 04:09:00,
2013-11-04 22:15:00,32.3,30.8,27.89,SSW,211,2.0,5.0,94,0.00,,---,0.24,VWS V14.01,2013-11-05 04:15:00,
2013-11-04 22:20:00,32.3,30.8,27.89,SW,235,5.0,5.0,94,0.00,,---,0.24,VWS V14.01,2013-11-05 04:20:00,
2013-11-04 22:25:00,32.3,30.5,27.89,West,266,5.0,5.0,93,0.00,,---,0.24,VWS V14.01,2013-11-05 04:25:00,
2013-11-04 22:30:00,32.3,30.5,27.89,SSW,193,6.0,6.0,93,0.00,,---,0.24,VWS V14.01,2013-11-05 04:30:00,
2013-11-04 22:35:00,32.3,30.5,27.89,SSW,192,3.0,5.0,93,0.00,,---,0.24,VWS V14.01,2013-11-05 04:35:00,
2013-11-04 22:40:00,32.3,30.5,27.89,SW,229,5.0,7.0,93,0.00,,---,0.24,VWS V14.01,2013-11-05 04:40:00,
2013-11-04 22:45:00,32.4,30.3,27.90,WSW,252,1.0,6.0,92,0.00,,---,0.24,VWS V14.01,2013-11-05 04:45:00,
2013-11-04 22:51:00,32.4,30.3,27.90,SW,219,2.0,3.0,92,0.00,,---,0.24,VWS V14.01,2013-11-05 04:51:00,
2013-11-04 22:56:00,32.5,30.4,27.90,SW,219,4.0,12.0,92,0.00,,---,0.24,VWS V14.01,2013-11-05 04:56:00,
2013-11-04 23:01:00,32.5,30.4,27.90,West,267,4.0,5.0,92,0.00,,---,0.24,VWS V14.01,2013-11-05 05:01:00,
2013-11-04 23:02:00,32.5,30.4,27.90,WSW,243,5.0,6.0,92,0.00,,---,0.24,VWS V14.01,2013-11-05 05:02:00,
2013-11-04 23:05:00,32.6,30.3,27.90,WSW,239,5.0,6.0,91,0.00,,---,0.24,VWS V14.01,2013-11-05 05:05:00,
2013-11-04 23:10:00,32.6,30.3,27.90,SW,219,3.0,5.0,91,0.00,,---,0.24,VWS V14.01,2013-11-05 05:10:00,
2013-11-04 23:16:00,32.7,30.4,27.91,SSW,212,6.0,7.0,91,0.00,,---,0.24,VWS V14.01,2013-11-05 05:16:00,
2013-11-04 23:21:00,32.7,30.4,27.91,SW,221,3.0,5.0,91,0.00,,---,0.24,VWS V14.01,2013-11-05 05:21:00,
2013-11-04 23:26:00,32.7,30.4,27.91,SW,215,11.0,11.0,91,0.00,,---,0.24,VWS V14.01,2013-11-05 05:26:00,
2013-11-04 23:31:00,32.8,30.5,27.91,WSW,243,4.0,10.0,91,0.00,,---,0.24,VWS V14.01,2013-11-05 05:31:00,
2013-11-04 23:37:00,32.9,30.3,27.91,South,185,4.0,7.0,90,0.00,,---,0.24,VWS V14.01,2013-11-05 05:37:00,
2013-11-04 23:42:00,32.9,30.3,27.91,WSW,242,4.0,8.0,90,0.00,,---,0.24,VWS V14.01,2013-11-05 05:42:00,
2013-11-04 23:47:00,32.9,30.3,27.92,WSW,258,2.0,10.0,90,0.00,,---,0.24,VWS V14.01,2013-11-05 05:47:00,
2013-11-04 23:52:00,32.9,30.0,27.92,WSW,256,4.0,9.0,89,0.00,,---,0.24,VWS V14.01,2013-11-05 05:52:00,
2013-11-04 23:57:00,32.9,30.0,27.92,WSW,239,4.0,7.0,89,0.00,,---,0.24,VWS V14.01,2013-11-05 05:57:00,